[[{"header":{"parameterUnit":"m.s-1","parameterCategory":2,"la1":30.2991,"la2":30.254,"lo1":-89.0895,"lo2":-89.0444,"dy":0.0017,"dx":0.0017,"nx":28,"ny":28,"refTime":"2023-07-21T09:00:00:Z","depth":"0","parameterNumber":2,"parameterNumberName":"U-component_of_CURRENTS"},"data":[0,0,0,0,0,0,0,0,0,0,0,0,0,0,0,0,0,0,0,0,0,0,0,0,0,0,0,0,0,0,0,0,0,0,0,0,0,0,0,0,0,0,0,0,0,0,0,0,0,0,0,0,0,0,0,0,0,0,0.2448,0.2453,0,0.283,0.2833,0.2837,0.2936,0.2935,0.2934,0.2932,0.2941,0.2942,0.2944,0,0,0,0,0,0,0,0,0,0,0,0,0,0.229,0.2288,0.2447,0.2453,0.2459,0.283,0.2834,0.2838,0.2936,0.2935,0.2933,0.2932,0.294,0.2942,0.2944,0,0,0,0,0,0,0,0,0,0,0,0,0,0.247,0.2287,0.2446,0.2562,0.2577,0.2829,0.2834,0.2839,0.2936,0.2935,0.2933,0.2931,0.294,0.2942,0.2944,0.2993,0,0,0.295,0.2951,0,0,0,0,0,0,0,0,0.2459,0.2474,0.2539,0.2555,0.2572,0.2844,0.2783,0.2876,0.2937,0.2787,0.2932,0.293,0.2883,0.289,0.2954,0.2993,0.2994,0.295,0.2952,0.2952,0.2953,0,0,0,0,0,0,0,0.2446,0.2461,0.2586,0.2546,0.2566,0.2764,0.2781,0.2804,0.2824,0.28,0.2811,0.2874,0.2888,0.2952,0.2954,0.2994,0.295,0.2952,0.2953,0.2954,0.3047,0.3048,0,0,0,0,0,0,0.24,0.2446,0.2574,0.2599,0.2525,0.2767,0.2786,0.2749,0.2832,0.285,0.2875,0.2878,0.2949,0.2951,0.2954,0.2967,0.2952,0.2954,0.2956,0.3045,0.3047,0.3048,0,0,0,0,0,0,0.2393,0.2403,0.2559,0.2549,0.2584,0.2769,0.2728,0.2757,0.2812,0.2896,0.2903,0.29,0.2948,0.2951,0.2929,0.2969,0.2955,0.2957,0.3044,0.3046,0.3048,0.3023,0,0,0,0,0,0,0.2385,0.2395,0.2363,0.2541,0.2583,0.2651,0.2732,0.2767,0.2861,0.2867,0.2919,0.2921,0.2947,0.2926,0.2931,0.2971,0.2959,0.3042,0.3045,0.3047,0.3023,0.3024,0.3025,0,0,0,0,0,0.2376,0.2367,0.2356,0.2375,0.2522,0.2651,0.2686,0.2812,0.2863,0.2858,0.2894,0.2918,0.2947,0.2926,0.2933,0.2975,0.3041,0.3044,0.3047,0.3022,0.3024,0.3025,0,0,0,0,0,0,0.2347,0.2382,0.2374,0.2385,0.2471,0.267,0.2711,0.2806,0.285,0.2841,0.2905,0.2906,0.2921,0.2941,0.2918,0.3013,0.3012,0.3016,0.2991,0.2993,0.2994,0.3005,0.296,0,0,0,0,0,0.2303,0.2254,0.2353,0.2364,0.2375,0.253,0.2609,0.2688,0.2771,0.2795,0.286,0.291,0.295,0.2953,0.299,0.3013,0.3073,0.3056,0.3057,0.3058,0.3074,0.3183,0.3196,0.3057,0.3057,0.3057,0,0,0.2329,0.2325,0.232,0.2349,0.2412,0.2457,0.2565,0.2655,0.2723,0.278,0.2855,0.2907,0.2955,0.2995,0.3006,0.3004,0.3128,0.3062,0.3062,0.3077,0.3188,0.3201,0.3213,0.3059,0.3059,0.3059,0,0,0.2342,0.2289,0.2243,0.2266,0.2331,0.2423,0.2432,0.2592,0.2654,0.2732,0.2806,0.2869,0.2938,0.3003,0.3035,0.3064,0.3133,0.3087,0.3099,0.3204,0.3217,0.3229,0.3315,0.3335,0.3086,0.3086,0.3086,0,0.2346,0.2306,0.2278,0.2237,0.2292,0.2384,0.2413,0.249,0.2652,0.271,0.2726,0.2921,0.2957,0.3039,0.3064,0.3071,0.3133,0.3081,0.3207,0.3219,0.3232,0.3318,0.334,0.3085,0.3085,0.3085,0.3085,0,0.235,0.2296,0.2279,0.2215,0.2253,0.2304,0.2379,0.2442,0.2548,0.2666,0.2781,0.2867,0.299,0.3026,0.3052,0.3175,0.3191,0.3195,0.3198,0.3244,0.3332,0.3356,0.3084,0.3084,0.3085,0.3085,0,0,0.2352,0.2294,0.2273,0.223,0.2253,0.2287,0.2344,0.2454,0.2522,0.2657,0.2786,0.2897,0.2988,0.3034,0.3106,0.3202,0.3347,0.3238,0.3243,0.3317,0.3579,0.3495,0.3513,0.3374,0.3378,0.3381,0.3601,0,0.2352,0.231,0.2291,0.2269,0.2246,0.2296,0.2352,0.2441,0.2551,0.2678,0.2801,0.2928,0.2973,0.3055,0.3156,0.3309,0.3409,0.3287,0.353,0.3537,0.3452,0.3538,0.3391,0.3567,0.3625,0.3629,0.3631,0,0.2315,0.2295,0.2302,0.2263,0.2256,0.2271,0.2358,0.2428,0.2576,0.267,0.2809,0.2921,0.3099,0.3127,0.3404,0.3325,0.3457,0.3562,0.3572,0.3523,0.3498,0.3534,0.3608,0.3563,0.3668,0.3665,0.3662,0,0.2307,0.226,0.2285,0.2274,0.2283,0.2292,0.2325,0.2434,0.2502,0.268,0.2773,0.2969,0.3115,0.3293,0.3517,0.3482,0.3811,0.3784,0.3829,0.3824,0.3762,0.3744,0.3816,0.3983,0.3983,0.3982,0.3981,0,0.2282,0.2251,0.2269,0.2258,0.2273,0.2265,0.2309,0.2384,0.2505,0.26,0.277,0.2901,0.3173,0.3383,0.3545,0.3766,0.3842,0.3861,0.3888,0.3746,0.3724,0.373,0.3645,0.399,0.3988,0.3987,0.3985,0,0.222,0.225,0.2234,0.2257,0.2251,0.2252,0.2266,0.2307,0.2436,0.2573,0.2642,0.2905,0.3182,0.3422,0.375,0.3812,0.393,0.4074,0.3877,0.3874,0.3798,0.3714,0.3672,0.3648,0.4143,0.4143,0.4142,0,0.2196,0.2196,0.2226,0.2226,0.2219,0.2213,0.2219,0.2285,0.2336,0.2571,0.2645,0.2945,0.3152,0.3564,0.3764,0.4023,0.3952,0.3995,0.3887,0.3796,0.3726,0.3567,0.354,0.3811,0.3808,0.3806,0.3804,0,0.2152,0.218,0.22,0.2214,0.2195,0.2176,0.2179,0.2203,0.2324,0.2444,0.2637,0.2815,0.3205,0.3424,0.3743,0.3866,0.3785,0.3944,0.3929,0.3533,0.3291,0.3279,0.3656,0.3781,0.3783,0.3785,0.3786,0.3787,0.2135,0.2149,0.2195,0.2199,0.2175,0.2147,0.2119,0.2149,0.222,0.2378,0.2551,0.2747,0.3053,0.3477,0.3609,0.3688,0.3668,0.3644,0.3577,0.3449,0.3319,0.3619,0.3708,0.371,0.3711,0.3713,0.3714,0,0.2124,0.2146,0.2162,0.2162,0.2121,0.2116,0.2102,0.2072,0.2123,0.227,0.2411,0.2629,0.2861,0.3116,0.3325,0.3341,0.3274,0.3304,0.3077,0.3101,0.3471,0.335,0.3268,0.3268,0.3268,0.3268,0.3268,0.3268,0.2133,0.2146,0.2169,0.2121,0.2092,0.2013,0.1991,0.1973,0.2019,0.2091,0.2183,0.2312,0.2634,0.2927,0.3044,0.2999,0.2916,0.2766,0.2863,0.313,0.3158,0.3184,0.3058,0.2916,0.2915,0.2445,0.244,0.2437]},{"header":{"parameterUnit":"m.s-1","parameterCategory":2,"la1":30.2991,"la2":30.254,"lo1":-89.0895,"lo2":-89.0444,"dy":0.0017,"dx":0.0017,"nx":28,"ny":28,"refTime":"2023-07-21T09:00:00:Z","depth":"0","parameterNumber":3,"parameterNumberName":"V-component_of_CURRENTS"},"data":[0,0,0,0,0,0,0,0,0,0,0,0,0,0,0,0,0,0,0,0,0,0,0,0,0,0,0,0,0,0,0,0,0,0,0,0,0,0,0,0,0,0,0,0,0,0,0,0,0,0,0,0,0,0,0,0,0,0,0.1029,0.103,0,0.1132,0.1133,0.1134,0.1171,0.1171,0.117,0.117,0.0997,0.0993,0.0988,0,0,0,0,0,0,0,0,0,0,0,0,0,0.1134,0.1131,0.1028,0.103,0.1031,0.1131,0.1133,0.1134,0.1171,0.1171,0.117,0.1169,0.0998,0.0993,0.0988,0,0,0,0,0,0,0,0,0,0,0,0,0,0.1148,0.1129,0.1028,0.106,0.1064,0.1131,0.1133,0.1135,0.1171,0.1171,0.117,0.1169,0.1,0.0994,0.0987,0.0964,0,0,0.0968,0.0966,0,0,0,0,0,0,0,0,0.1147,0.1144,0.1054,0.1058,0.1063,0.1137,0.1107,0.1063,0.1171,0.1132,0.117,0.1169,0.1017,0.101,0.1037,0.0955,0.0948,0.0968,0.0964,0.0961,0.096,0,0,0,0,0,0,0,0.1146,0.1142,0.1071,0.1056,0.1061,0.1163,0.1161,0.1102,0.1073,0.1135,0.1138,0.1148,0.1018,0.1043,0.1032,0.0945,0.0968,0.0962,0.0959,0.0956,0.0814,0.0814,0,0,0,0,0,0,0.1116,0.1139,0.1067,0.1074,0.1103,0.116,0.1159,0.1115,0.108,0.1076,0.1148,0.1149,0.1054,0.1039,0.1025,0.0986,0.0961,0.0956,0.0952,0.0814,0.0814,0.0814,0,0,0,0,0,0,0.1117,0.1107,0.1063,0.1112,0.1113,0.1156,0.1109,0.1117,0.1147,0.1093,0.1083,0.1169,0.1053,0.1034,0.0974,0.0979,0.0953,0.0947,0.0814,0.0814,0.0814,0.091,0,0,0,0,0,0,0.1119,0.1105,0.1072,0.1107,0.1109,0.1092,0.1109,0.112,0.1153,0.1155,0.1107,0.1091,0.1051,0.0984,0.0968,0.097,0.0942,0.0814,0.0814,0.0814,0.0907,0.0913,0.0919,0,0,0,0,0,0.1121,0.111,0.1068,0.1061,0.1056,0.1092,0.1103,0.1136,0.1155,0.1163,0.1134,0.1093,0.0972,0.0979,0.096,0.096,0.0814,0.0814,0.0814,0.0904,0.0912,0.0919,0,0,0,0,0,0,0.1197,0.1113,0.1068,0.1041,0.1045,0.1098,0.1105,0.1143,0.1139,0.1128,0.1089,0.107,0.1023,0.0973,0.0982,0.0918,0.0887,0.0884,0.0962,0.0969,0.0975,0.1001,0.0937,0,0,0,0,0,0.1174,0.1108,0.1078,0.1064,0.1034,0.1065,0.1088,0.1114,0.1118,0.1121,0.1108,0.1063,0.1011,0.0975,0.0928,0.0885,0.086,0.0872,0.0878,0.0884,0.0892,0.0866,0.0872,0.0814,0.0814,0.0814,0,0,0.1213,0.1154,0.1127,0.107,0.1055,0.1053,0.1076,0.1102,0.1142,0.1091,0.1126,0.1082,0.1005,0.097,0.0943,0.0925,0.0888,0.0883,0.0889,0.0894,0.0867,0.0873,0.0878,0.0814,0.0814,0.0814,0,0,0.1247,0.1168,0.1101,0.1089,0.1052,0.107,0.1073,0.1109,0.1139,0.1158,0.1132,0.1091,0.1043,0.0996,0.0957,0.0958,0.0924,0.0947,0.0992,0.0968,0.0973,0.0977,0.0966,0.0969,0.0945,0.0946,0.0946,0,0.1252,0.1198,0.1115,0.1065,0.1076,0.1069,0.107,0.1101,0.115,0.1175,0.1166,0.1125,0.1053,0.1005,0.1011,0.0971,0.0968,0.0975,0.0978,0.0982,0.0985,0.0972,0.0974,0.095,0.095,0.0949,0.0949,0,0.1247,0.1207,0.1183,0.108,0.1088,0.1102,0.1102,0.1135,0.1173,0.1224,0.122,0.1151,0.1123,0.1095,0.105,0.1034,0.1031,0.0997,0.097,0.0997,0.0981,0.0981,0.0957,0.0955,0.0954,0.0953,0,0,0.1201,0.1163,0.1151,0.1142,0.1105,0.1126,0.1146,0.118,0.1228,0.1252,0.1307,0.1223,0.122,0.1174,0.1116,0.1091,0.1098,0.1067,0.1063,0.1073,0.1075,0.101,0.1004,0.1085,0.1085,0.1085,0.1063,0,0.1192,0.1162,0.1143,0.117,0.1161,0.1161,0.1197,0.124,0.1282,0.1337,0.1283,0.1302,0.124,0.123,0.1193,0.1123,0.1102,0.1109,0.1032,0.103,0.0982,0.1002,0.1016,0.0992,0.1062,0.1062,0.1062,0,0.1166,0.1162,0.1182,0.1227,0.1212,0.1237,0.1293,0.1333,0.1377,0.141,0.1412,0.1403,0.1356,0.1304,0.1211,0.1231,0.1165,0.1112,0.1109,0.1015,0.0964,0.097,0.0989,0.0841,0.1061,0.1062,0.1062,0,0.1206,0.1196,0.1237,0.1246,0.1277,0.1294,0.1314,0.1363,0.1411,0.1467,0.1514,0.1471,0.1453,0.1371,0.1259,0.1252,0.1168,0.113,0.1011,0.1006,0.0982,0.0973,0.0859,0.1073,0.1073,0.1073,0.1073,0,0.1219,0.1246,0.1263,0.1289,0.1347,0.1344,0.1404,0.1438,0.1479,0.1552,0.1556,0.1586,0.1478,0.1421,0.1305,0.1159,0.1196,0.1027,0.0994,0.1014,0.1009,0.0847,0.0732,0.1073,0.1073,0.1073,0.1073,0,0.1254,0.1266,0.1318,0.1356,0.1371,0.1413,0.1444,0.1497,0.1543,0.1628,0.1655,0.1676,0.1615,0.1494,0.1355,0.1215,0.0989,0.1019,0.1056,0.1026,0.0753,0.0642,0.0491,0.0443,0.0887,0.0885,0.0883,0,0.1259,0.1297,0.1368,0.1413,0.1426,0.1469,0.1506,0.1532,0.159,0.1681,0.1732,0.1722,0.1741,0.1519,0.1281,0.1078,0.094,0.0928,0.0885,0.074,0.0594,0.0555,0.0525,0.0904,0.0903,0.0902,0.0901,0,0.1283,0.132,0.1376,0.1473,0.1521,0.1572,0.1621,0.1669,0.1723,0.1817,0.1906,0.1934,0.1736,0.1553,0.1265,0.1095,0.0813,0.0897,0.0746,0.0589,0.0543,0.0482,0.0922,0.0893,0.0894,0.0894,0.0895,0.0895,0.1288,0.1341,0.1431,0.1519,0.1605,0.1685,0.1733,0.1809,0.1918,0.2069,0.2031,0.211,0.1792,0.1409,0.1173,0.0703,0.0717,0.0589,0.0469,0.0448,0.0381,0.0794,0.0715,0.0715,0.0715,0.0715,0.0715,0,0.1249,0.134,0.146,0.1579,0.169,0.1715,0.1826,0.1889,0.2041,0.2169,0.2252,0.211,0.1722,0.1294,0.065,0.0361,0.0297,0.019,0.0154,0.0146,0.0522,0.0501,0.0374,0.0375,0.0375,0.0375,0.0375,0.0375,0.123,0.133,0.1416,0.1612,0.1713,0.1831,0.1895,0.2035,0.2141,0.2277,0.232,0.2346,0.1979,0.0814,0.0105,-0.0054,-0.0234,-0.0273,-0.0374,-0.0123,-0.0093,-0.0065,-0.0109,-0.036,-0.0362,-0.063,-0.0634,-0.0637]}],[{"header":{"parameterUnit":"m.s-1","parameterCategory":2,"la1":30.2991,"la2":30.254,"lo1":-89.0895,"lo2":-89.0444,"dy":0.0017,"dx":0.0017,"nx":28,"ny":28,"refTime":"2023-07-21T09:00:00:Z","depth":"2","parameterNumber":2,"parameterNumberName":"U-component_of_CURRENTS"},"data":[0,0,0,0,0,0,0,0,0,0,0,0,0,0,0,0,0,0,0,0,0,0,0,0,0,0,0,0,0,0,0,0,0,0,0,0,0,0,0,0,0,0,0,0,0,0,0,0,0,0,0,0,0,0,0,0,0,0,0.1653,0.1654,0,0.1795,0.1797,0.1798,0.1849,0.1848,0.1848,0.1847,0.1822,0.1822,0.1822,0,0,0,0,0,0,0,0,0,0,0,0,0,0.1551,0.1552,0.1653,0.1654,0.1656,0.1795,0.1797,0.1799,0.1849,0.1848,0.1848,0.1847,0.1822,0.1822,0.1822,0,0,0,0,0,0,0,0,0,0,0,0,0,0.1634,0.1552,0.1652,0.1698,0.1703,0.1794,0.1797,0.1799,0.1849,0.1848,0.1848,0.1847,0.1822,0.1822,0.1822,0.1837,0,0,0.1821,0.1821,0,0,0,0,0,0,0,0,0.1629,0.1638,0.1689,0.1695,0.1701,0.1803,0.1752,0.1803,0.1849,0.1794,0.1847,0.1846,0.18,0.1802,0.1833,0.1835,0.1834,0.1821,0.1821,0.1821,0.182,0,0,0,0,0,0,0,0.1623,0.1633,0.1709,0.1691,0.1698,0.1754,0.1764,0.1763,0.1797,0.1799,0.1803,0.1818,0.1802,0.1834,0.1833,0.1834,0.1821,0.1821,0.182,0.182,0.1794,0.1794,0,0,0,0,0,0,0.1599,0.1627,0.1705,0.1714,0.1662,0.1756,0.1767,0.1771,0.1801,0.1806,0.1819,0.182,0.1835,0.1833,0.1832,0.1838,0.1821,0.182,0.182,0.1795,0.1794,0.1793,0,0,0,0,0,0,0.1596,0.1605,0.1699,0.1674,0.169,0.1758,0.1763,0.1775,0.1773,0.1818,0.182,0.1801,0.1834,0.1832,0.1851,0.1837,0.182,0.182,0.1795,0.1794,0.1794,0.1858,0,0,0,0,0,0,0.1593,0.1602,0.1604,0.1672,0.169,0.1679,0.1764,0.1778,0.1786,0.1788,0.1804,0.1804,0.1833,0.1852,0.1851,0.1837,0.182,0.1796,0.1795,0.1794,0.1857,0.186,0.1862,0,0,0,0,0,0.1588,0.1621,0.1603,0.1613,0.1687,0.1675,0.1687,0.1737,0.1785,0.1742,0.1826,0.1801,0.1842,0.1853,0.1851,0.1837,0.1796,0.1795,0.1794,0.1855,0.1859,0.1862,0,0,0,0,0,0,0.1514,0.1631,0.1613,0.1654,0.1615,0.1682,0.17,0.1713,0.1751,0.179,0.1822,0.1826,0.1843,0.1818,0.1829,0.182,0.1802,0.1801,0.1849,0.1852,0.1855,0.1847,0.182,0,0,0,0,0,0.1506,0.1588,0.16,0.1601,0.1605,0.1635,0.1648,0.1668,0.1715,0.1731,0.179,0.1828,0.1842,0.1829,0.1858,0.1846,0.1819,0.1823,0.1825,0.1828,0.1818,0.1785,0.1785,0.1789,0.1789,0.1789,0,0,0.1482,0.1542,0.1586,0.1596,0.1606,0.1617,0.164,0.1652,0.1664,0.1722,0.1812,0.1857,0.1848,0.1878,0.1872,0.1846,0.1815,0.1827,0.183,0.1817,0.1784,0.1784,0.1784,0.1789,0.1789,0.1789,0,0,0.1453,0.1505,0.1551,0.1542,0.1552,0.1597,0.1578,0.1649,0.1671,0.1739,0.18,0.1826,0.1883,0.1874,0.1865,0.1872,0.1852,0.1876,0.1863,0.1833,0.1832,0.1832,0.1813,0.1811,0.1851,0.1851,0.1851,0,0.1471,0.1488,0.1529,0.1532,0.1577,0.1578,0.1598,0.1602,0.1679,0.1718,0.1763,0.1884,0.1871,0.1854,0.1881,0.1874,0.188,0.1862,0.1838,0.1837,0.1835,0.1816,0.1812,0.1854,0.1854,0.1853,0.1853,0,0.1391,0.1464,0.1483,0.1542,0.1535,0.1582,0.1585,0.1606,0.1696,0.1748,0.1805,0.1842,0.189,0.1882,0.1897,0.1866,0.1885,0.1873,0.1838,0.1839,0.1819,0.1814,0.1858,0.1857,0.1856,0.1856,0,0,0.1446,0.148,0.1509,0.1537,0.1601,0.1592,0.1606,0.1645,0.1671,0.1753,0.1818,0.1836,0.1887,0.1875,0.1874,0.1842,0.184,0.1867,0.1864,0.1862,0.1811,0.1741,0.1729,0.1857,0.1856,0.1855,0.1809,0,0.145,0.1505,0.1525,0.159,0.1631,0.1662,0.1665,0.1668,0.1733,0.1797,0.1796,0.1882,0.1859,0.1919,0.187,0.1893,0.1829,0.1855,0.1796,0.1794,0.1743,0.172,0.1605,0.1548,0.1803,0.1802,0.1802,0,0.136,0.1475,0.1539,0.1656,0.1675,0.1709,0.1766,0.176,0.1781,0.184,0.1884,0.1931,0.1926,0.1911,0.1856,0.1901,0.184,0.1821,0.1818,0.1721,0.1713,0.1581,0.1528,0.1793,0.1793,0.1794,0.1795,0,0.1307,0.148,0.1566,0.1603,0.17,0.1744,0.181,0.1807,0.1805,0.1894,0.1959,0.1962,0.201,0.1942,0.1881,0.1907,0.1815,0.1829,0.1676,0.1672,0.1537,0.1521,0.1716,0.1716,0.1717,0.1717,0.1717,0,0.1284,0.14,0.1571,0.1614,0.1753,0.1761,0.1824,0.1881,0.1902,0.1926,0.1993,0.2021,0.2032,0.1982,0.1899,0.177,0.1803,0.1662,0.1644,0.1556,0.1544,0.1722,0.1723,0.1715,0.1715,0.1716,0.1716,0,0.1151,0.1283,0.1396,0.1595,0.17,0.1752,0.189,0.1865,0.1943,0.1978,0.203,0.2095,0.2066,0.1978,0.1894,0.1797,0.1681,0.159,0.1496,0.1466,0.1564,0.1569,0.1475,0.1472,0.1469,0.1467,0.1465,0,0.1113,0.113,0.1355,0.1451,0.1586,0.1717,0.1766,0.1887,0.1872,0.1996,0.2002,0.2047,0.1965,0.1818,0.1683,0.149,0.1552,0.1329,0.1317,0.1542,0.1534,0.1543,0.1551,0.1177,0.1173,0.1169,0.1167,0,0.1074,0.1092,0.1156,0.1333,0.147,0.1617,0.1752,0.1768,0.1848,0.1885,0.1953,0.1921,0.1776,0.1589,0.1366,0.1231,0.1373,0.1257,0.1493,0.1256,0.1256,0.1251,0.1269,0.1137,0.114,0.1142,0.1144,0.1145,0.1037,0.1058,0.1094,0.1243,0.1371,0.1549,0.1604,0.1638,0.1678,0.1647,0.173,0.1617,0.1521,0.1134,0.1043,0.104,0.1072,0.1068,0.108,0.1095,0.1069,0.1064,0.0905,0.0907,0.0908,0.091,0.0911,0,0.1096,0.1108,0.1086,0.1233,0.1237,0.1473,0.158,0.1516,0.1499,0.1462,0.1372,0.1165,0.0947,0.0943,0.0874,0.0808,0.0799,0.0827,0.0862,0.0886,0.0909,0.0878,0.0662,0.0662,0.0663,0.0663,0,0,0.1154,0.1095,0.1027,0.1083,0.1234,0.1374,0.1472,0.1331,0.1271,0.1116,0.1046,0.0799,0.0908,0.0794,0.072,0.0766,0.084,0.0718,0.0897,0.0965,0.099,0.0998,0.097,0,0,0,0,0]},{"header":{"parameterUnit":"m.s-1","parameterCategory":2,"la1":30.2991,"la2":30.254,"lo1":-89.0895,"lo2":-89.0444,"dy":0.0017,"dx":0.0017,"nx":28,"ny":28,"refTime":"2023-07-21T09:00:00:Z","depth":"2","parameterNumber":3,"parameterNumberName":"V-component_of_CURRENTS"},"data":[0,0,0,0,0,0,0,0,0,0,0,0,0,0,0,0,0,0,0,0,0,0,0,0,0,0,0,0,0,0,0,0,0,0,0,0,0,0,0,0,0,0,0,0,0,0,0,0,0,0,0,0,0,0,0,0,0,0,0.0127,0.0121,0,-0.01,-0.01,-0.0099,-0.0028,-0.0027,-0.0026,-0.0025,-0.0206,-0.0211,-0.0217,0,0,0,0,0,0,0,0,0,0,0,0,0,0.0375,0.0375,0.0128,0.0121,0.0114,-0.0101,-0.01,-0.0099,-0.0028,-0.0027,-0.0026,-0.0025,-0.0204,-0.021,-0.0217,0,0,0,0,0,0,0,0,0,0,0,0,0,0.0261,0.0375,0.0129,0.0092,0.0083,-0.0101,-0.0099,-0.0098,-0.0028,-0.0027,-0.0026,-0.0024,-0.0202,-0.021,-0.0218,-0.0297,0,0,-0.0244,-0.0248,0,0,0,0,0,0,0,0,0.0268,0.0258,0.0104,0.0094,0.0083,-0.0072,-0.0082,-0.0177,-0.0029,0.0059,-0.0025,-0.0024,-0.0186,-0.0195,-0.0181,-0.0305,-0.0313,-0.0245,-0.025,-0.0253,-0.0256,0,0,0,0,0,0,0,0.0276,0.0265,0.0081,0.0096,0.0083,-0.0003,-0.0009,-0.0097,-0.0034,0.0052,0.0046,-0.0048,-0.0185,-0.0172,-0.0185,-0.0316,-0.0244,-0.0252,-0.0257,-0.026,-0.0456,-0.0456,0,0,0,0,0,0,0.0229,0.0274,0.0087,0.007,0.0132,-0.001,-0.0017,0.0012,-0.0034,-0.0053,-0.005,-0.0045,-0.0158,-0.0175,-0.0192,-0.0196,-0.0253,-0.0261,-0.0266,-0.0456,-0.0456,-0.0456,0,0,0,0,0,0,0.0238,0.022,0.0096,0.0125,0.0098,-0.0018,0.0014,0.0005,-0.002,-0.012,-0.0127,-0.0076,-0.0158,-0.018,-0.0174,-0.0207,-0.0265,-0.0273,-0.0456,-0.0456,-0.0456,-0.0267,0,0,0,0,0,0,0.0249,0.0229,0.0251,0.0126,0.0093,-0.0044,0.0007,-0.0002,-0.01,-0.0094,-0.0147,-0.0158,-0.0159,-0.016,-0.0182,-0.022,-0.0279,-0.0456,-0.0456,-0.0456,-0.0273,-0.0261,-0.025,0,0,0,0,0,0.0261,0.0315,0.0259,0.0231,0.0128,-0.0053,-0.0072,-0.0125,-0.0103,-0.013,-0.0064,-0.0158,-0.0182,-0.0163,-0.019,-0.0232,-0.0455,-0.0456,-0.0456,-0.0278,-0.0263,-0.0251,0,0,0,0,0,0,0.0354,0.0317,0.0256,0.0271,0.0077,-0.0057,-0.0072,-0.0157,-0.013,-0.0052,-0.012,-0.0127,-0.0134,-0.0222,-0.0203,-0.0294,-0.0356,-0.0361,-0.0213,-0.02,-0.0188,-0.022,-0.0286,0,0,0,0,0,0.0384,0.0464,0.0276,0.0245,0.02,0.0048,-0.0028,-0.0071,-0.0109,-0.0095,-0.0132,-0.0145,-0.0161,-0.0202,-0.0216,-0.0281,-0.0371,-0.0344,-0.0332,-0.0321,-0.0368,-0.0485,-0.0488,-0.0457,-0.0457,-0.0457,0,0,0.035,0.036,0.0364,0.0271,0.0183,0.0131,0.0026,-0.0058,-0.0096,-0.0123,-0.0082,-0.0093,-0.0158,-0.0149,-0.0179,-0.0231,-0.0359,-0.0321,-0.0311,-0.0366,-0.0486,-0.0489,-0.0492,-0.0457,-0.0457,-0.0457,0,0,0.034,0.0393,0.0442,0.0371,0.0241,0.0183,0.0132,0.0015,-0.0004,-0.0026,-0.0006,-0.0041,-0.0098,-0.0134,-0.0168,-0.015,-0.0266,-0.0174,-0.0176,-0.0285,-0.0289,-0.0294,-0.0322,-0.0332,-0.0202,-0.0201,-0.0201,0,0.0351,0.0385,0.0372,0.04,0.0352,0.0208,0.018,0.0134,0.0023,0.0016,0.0014,-0.0027,-0.0105,-0.0134,-0.0103,-0.0134,-0.0166,-0.0201,-0.0268,-0.0275,-0.0283,-0.0314,-0.0326,-0.0192,-0.0193,-0.0194,-0.0195,0,0.029,0.0389,0.0415,0.0473,0.0396,0.0379,0.027,0.0233,0.0201,0.0152,0.012,0.0062,0.0009,-0.0039,-0.0063,-0.0163,-0.0147,-0.0201,-0.0291,-0.0275,-0.0307,-0.0323,-0.0179,-0.0183,-0.0185,-0.0187,0,0,0.0292,0.0387,0.0413,0.0494,0.0488,0.0434,0.0402,0.0317,0.0312,0.0246,0.0202,0.0143,0.0108,0.0057,-0.0013,-0.0152,-0.0221,-0.0199,-0.0209,-0.0207,-0.0379,-0.0288,-0.0297,-0.0253,-0.0257,-0.026,-0.0344,0,0.0292,0.0384,0.0416,0.0515,0.058,0.0535,0.0493,0.0424,0.0372,0.0329,0.0227,0.0221,0.0147,0.0133,-0.0009,-0.0166,-0.0269,-0.019,-0.042,-0.0427,-0.0333,-0.0318,-0.0322,-0.0393,-0.0361,-0.0364,-0.0366,0,0.0245,0.038,0.043,0.0632,0.0645,0.0679,0.0652,0.0592,0.0501,0.0463,0.0418,0.0366,0.0217,0.0124,-0.0144,-0.0063,-0.0217,-0.036,-0.0367,-0.0385,-0.0371,-0.0429,-0.0425,-0.0395,-0.0393,-0.0391,-0.0389,0,0.0214,0.0438,0.05,0.0557,0.0674,0.0717,0.0754,0.0664,0.0615,0.0572,0.0571,0.043,0.0358,0.0127,-0.0123,-0.0129,-0.043,-0.0478,-0.0531,-0.0522,-0.0637,-0.0632,-0.07,-0.07,-0.07,-0.07,-0.0699,0,0.0232,0.0374,0.0548,0.0617,0.0784,0.0802,0.0857,0.0859,0.0768,0.0765,0.0687,0.063,0.0345,0.0166,-0.0085,-0.0321,-0.0382,-0.0541,-0.0561,-0.0557,-0.0544,-0.0667,-0.0662,-0.0703,-0.0702,-0.0701,-0.0701,0,0.0176,0.0257,0.0444,0.0653,0.0777,0.0865,0.1003,0.0982,0.0946,0.0913,0.0919,0.0765,0.0548,0.0282,-0.0107,-0.0234,-0.0508,-0.0578,-0.0498,-0.0507,-0.0531,-0.0516,-0.0653,-0.0651,-0.065,-0.0648,-0.0647,0,0.0161,0.0217,0.0474,0.0603,0.0761,0.0934,0.1007,0.1056,0.1035,0.0988,0.0974,0.0813,0.0643,0.0213,-0.008,-0.0418,-0.0499,-0.0545,-0.0607,-0.0532,-0.0538,-0.0525,-0.0512,-0.0658,-0.0657,-0.0656,-0.0655,0,0.0215,0.0232,0.0336,0.0573,0.0771,0.097,0.1145,0.1165,0.115,0.1132,0.1078,0.0944,0.0584,0.0206,-0.0153,-0.0362,-0.0486,-0.0532,-0.0544,-0.0634,-0.0535,-0.0539,-0.0529,-0.0648,-0.0649,-0.0649,-0.065,-0.065,0.0241,0.0288,0.0362,0.0591,0.0792,0.1026,0.1151,0.1235,0.1259,0.1164,0.1055,0.0834,0.0477,-0.0064,-0.0289,-0.0416,-0.047,-0.0565,-0.057,-0.0576,-0.0527,-0.0427,-0.0507,-0.0507,-0.0507,-0.0507,-0.0507,0,0.0317,0.0354,0.045,0.0666,0.0794,0.102,0.1225,0.1244,0.1298,0.1138,0.0972,0.0582,0.0182,-0.0107,-0.0309,-0.0466,-0.0493,-0.049,-0.0547,-0.0555,-0.0561,-0.0513,-0.0489,-0.0489,-0.0489,-0.0488,0,0,0.0345,0.0382,0.0377,0.0619,0.0835,0.1091,0.1249,0.128,0.1217,0.1021,0.0832,0.0405,0.0153,-0.0037,-0.0283,-0.0349,-0.0381,-0.0338,-0.0347,-0.0394,-0.0397,-0.0614,-0.0548,0,0,0,0,0]}],[{"header":{"parameterUnit":"m.s-1","parameterCategory":2,"la1":30.2991,"la2":30.254,"lo1":-89.0895,"lo2":-89.0444,"dy":0.0017,"dx":0.0017,"nx":28,"ny":28,"refTime":"2023-07-21T09:00:00:Z","depth":"4","parameterNumber":2,"parameterNumberName":"U-component_of_CURRENTS"},"data":[0,0,0,0,0,0,0,0,0,0,0,0,0,0,0,0,0,0,0,0,0,0,0,0,0,0,0,0,0,0,0,0,0,0,0,0,0,0,0,0,0,0,0,0,0,0,0,0,0,0,0,0,0,0,0,0,0,0,-0.0402,-0.0401,0,-0.0341,-0.034,-0.034,-0.032,-0.032,-0.032,-0.032,-0.0313,-0.0313,-0.0313,0,0,0,0,0,0,0,0,0,0,0,0,0,-0.0367,-0.0369,-0.0402,-0.0401,-0.04,-0.0341,-0.034,-0.034,-0.032,-0.032,-0.032,-0.032,-0.0313,-0.0313,-0.0313,0,0,0,0,0,0,0,0,0,0,0,0,0,-0.0354,-0.0369,-0.0402,-0.0381,-0.0379,-0.0341,-0.034,-0.0339,-0.032,-0.032,-0.032,-0.032,-0.0313,-0.0313,-0.0313,-0.0309,0,0,-0.0312,-0.0311,0,0,0,0,0,0,0,0,-0.0355,-0.0356,-0.0385,-0.0383,-0.038,-0.0336,-0.0325,-0.0331,-0.032,-0.0345,-0.032,-0.032,-0.0324,-0.0323,-0.0314,-0.0309,-0.0308,-0.0312,-0.0311,-0.0311,-0.0311,0,0,0,0,0,0,0,-0.0356,-0.0358,-0.038,-0.0384,-0.0381,-0.0328,-0.0328,-0.0325,-0.0338,-0.0343,-0.0341,-0.033,-0.0323,-0.0314,-0.0314,-0.0308,-0.0312,-0.0311,-0.0311,-0.0311,-0.0382,-0.0384,0,0,0,0,0,0,-0.0366,-0.036,-0.0382,-0.0378,-0.0364,-0.0329,-0.0329,-0.0352,-0.0337,-0.0333,-0.033,-0.0329,-0.0315,-0.0314,-0.0314,-0.0367,-0.0311,-0.0311,-0.0311,-0.038,-0.0382,-0.0384,0,0,0,0,0,0,-0.0366,-0.037,-0.0385,-0.0363,-0.0361,-0.0331,-0.0356,-0.0351,-0.0339,-0.0326,-0.0324,-0.0322,-0.0315,-0.0314,-0.0341,-0.0364,-0.0311,-0.031,-0.0377,-0.038,-0.0383,-0.0436,0,0,0,0,0,0,-0.0366,-0.0372,-0.0397,-0.0365,-0.0362,-0.0358,-0.0355,-0.0349,-0.0331,-0.0329,-0.0319,-0.0318,-0.0315,-0.0342,-0.0341,-0.0363,-0.031,-0.0374,-0.0378,-0.0382,-0.0431,-0.044,-0.0448,0,0,0,0,0,-0.0366,-0.0391,-0.04,-0.0402,-0.0399,-0.0358,-0.0351,-0.033,-0.033,-0.0321,-0.0344,-0.0318,-0.0366,-0.0344,-0.0342,-0.0364,-0.0372,-0.0377,-0.0382,-0.0428,-0.0439,-0.0448,0,0,0,0,0,0,-0.0366,-0.039,-0.0399,-0.0427,-0.0395,-0.0353,-0.0353,-0.0329,-0.0335,-0.0348,-0.034,-0.0342,-0.0375,-0.0367,-0.0342,-0.04,-0.0367,-0.0371,-0.0402,-0.0412,-0.042,-0.0375,-0.031,0,0,0,0,0,-0.0386,-0.0429,-0.0408,-0.0426,-0.0424,-0.039,-0.0375,-0.0353,-0.0346,-0.0347,-0.0345,-0.0364,-0.0392,-0.04,-0.0414,-0.0437,-0.0399,-0.0455,-0.0463,-0.047,-0.0435,-0.0421,-0.0423,-0.04,-0.04,-0.04,0,0,-0.0385,-0.0406,-0.0426,-0.0431,-0.042,-0.0405,-0.0383,-0.0359,-0.0339,-0.0348,-0.0353,-0.0387,-0.0407,-0.0446,-0.0459,-0.044,-0.0463,-0.0476,-0.0481,-0.0442,-0.0425,-0.0427,-0.0428,-0.0403,-0.0402,-0.0402,0,0,-0.0394,-0.0433,-0.0468,-0.0458,-0.0444,-0.0415,-0.0408,-0.0376,-0.0364,-0.0367,-0.0392,-0.0434,-0.0453,-0.048,-0.0496,-0.0553,-0.0508,-0.0575,-0.0575,-0.0563,-0.0563,-0.0563,-0.0533,-0.0529,-0.0578,-0.0578,-0.0578,0,-0.0393,-0.0438,-0.0456,-0.0476,-0.0464,-0.0422,-0.0415,-0.0391,-0.0367,-0.0363,-0.0374,-0.0436,-0.0461,-0.0509,-0.0549,-0.0565,-0.0547,-0.0535,-0.057,-0.0568,-0.0567,-0.0536,-0.0531,-0.0581,-0.0581,-0.0581,-0.0581,0,-0.0413,-0.0453,-0.0465,-0.0493,-0.0475,-0.0459,-0.0427,-0.0416,-0.0403,-0.0374,-0.0409,-0.0457,-0.0491,-0.0527,-0.0557,-0.0586,-0.0573,-0.0581,-0.0534,-0.0572,-0.0538,-0.0532,-0.0586,-0.0585,-0.0584,-0.0583,0,0,-0.0412,-0.0472,-0.0476,-0.0492,-0.0484,-0.0458,-0.0451,-0.0413,-0.0402,-0.0399,-0.0397,-0.0472,-0.0493,-0.0514,-0.0569,-0.0568,-0.0574,-0.058,-0.0578,-0.0529,-0.0536,-0.0481,-0.0469,-0.0595,-0.0594,-0.0594,-0.052,0,-0.0419,-0.0448,-0.0478,-0.048,-0.0486,-0.0476,-0.0471,-0.0436,-0.041,-0.0401,-0.0426,-0.0459,-0.0487,-0.0545,-0.0542,-0.0574,-0.0559,-0.0591,-0.0521,-0.0518,-0.0448,-0.046,-0.0591,-0.0515,-0.0514,-0.0513,-0.0512,0,-0.0429,-0.0451,-0.0458,-0.0491,-0.0495,-0.0484,-0.0461,-0.0448,-0.0426,-0.043,-0.0441,-0.0456,-0.0489,-0.051,-0.0504,-0.053,-0.0526,-0.0527,-0.0524,-0.0436,-0.0451,-0.0468,-0.0501,-0.0501,-0.0502,-0.0503,-0.0504,0,-0.0392,-0.0438,-0.0437,-0.0444,-0.0468,-0.0474,-0.0469,-0.0448,-0.0447,-0.0445,-0.0451,-0.0464,-0.0499,-0.0477,-0.0477,-0.0505,-0.0434,-0.0473,-0.04,-0.0396,-0.0442,-0.0442,-0.0432,-0.0432,-0.0432,-0.0433,-0.0433,0,-0.0384,-0.0397,-0.0423,-0.0424,-0.0434,-0.0454,-0.0455,-0.046,-0.047,-0.0457,-0.0466,-0.0469,-0.0495,-0.0461,-0.0448,-0.0384,-0.0404,-0.0372,-0.0367,-0.0472,-0.0476,-0.0438,-0.044,-0.043,-0.043,-0.0431,-0.0432,0,-0.0358,-0.0376,-0.0385,-0.0408,-0.0422,-0.0418,-0.046,-0.046,-0.0474,-0.0461,-0.0476,-0.0482,-0.0443,-0.0412,-0.0388,-0.0355,-0.0302,-0.0273,-0.0354,-0.0359,-0.0281,-0.0287,-0.019,-0.0187,-0.0185,-0.0183,-0.0181,0,-0.0358,-0.036,-0.0361,-0.0363,-0.038,-0.0397,-0.0418,-0.046,-0.0463,-0.0451,-0.0444,-0.0421,-0.0407,-0.0284,-0.0291,-0.0215,-0.0217,-0.0184,-0.0255,-0.0247,-0.0253,-0.0262,-0.0271,-0.0178,-0.0177,-0.0176,-0.0176,0,-0.0366,-0.0351,-0.0338,-0.0332,-0.0345,-0.0369,-0.0396,-0.0402,-0.043,-0.0453,-0.0388,-0.0339,-0.0282,-0.0249,-0.0185,-0.0142,-0.0205,-0.0161,-0.0167,-0.0234,-0.0232,-0.0241,-0.0253,-0.0168,-0.0169,-0.017,-0.017,0,-0.0373,-0.0343,-0.0311,-0.0302,-0.0309,-0.031,-0.0339,-0.0342,-0.0358,-0.0351,-0.033,-0.0268,-0.0278,-0.0208,-0.0145,-0.0096,-0.0111,-0.011,-0.0119,-0.0128,-0.0143,-0.0134,-0.0011,0,0,0,0,0,-0.0386,-0.0333,-0.0303,-0.0262,-0.0255,-0.0263,-0.0312,-0.0345,-0.0374,-0.031,-0.0317,-0.0249,-0.016,-0.0149,-0.0084,-0.0133,-0.012,-0.0058,-0.0127,-0.0124,-0.0133,-0.0157,0,0,0,0,0,0,-0.0385,-0.0349,-0.0286,-0.0226,-0.0191,-0.0194,-0.0216,-0.0241,-0.0223,-0.0241,-0.0201,-0.0208,-0.0141,-0.0167,-0.0064,-0.0059,-0.009,-0.004,-0.0039,-0.0119,-0.0127,-0.0134,-0.0163,0,0,0,0,0]},{"header":{"parameterUnit":"m.s-1","parameterCategory":2,"la1":30.2991,"la2":30.254,"lo1":-89.0895,"lo2":-89.0444,"dy":0.0017,"dx":0.0017,"nx":28,"ny":28,"refTime":"2023-07-21T09:00:00:Z","depth":"4","parameterNumber":3,"parameterNumberName":"V-component_of_CURRENTS"},"data":[0,0,0,0,0,0,0,0,0,0,0,0,0,0,0,0,0,0,0,0,0,0,0,0,0,0,0,0,0,0,0,0,0,0,0,0,0,0,0,0,0,0,0,0,0,0,0,0,0,0,0,0,0,0,0,0,0,0,-0.0293,-0.0293,0,-0.0369,-0.037,-0.0371,-0.0426,-0.0426,-0.0427,-0.0427,-0.0441,-0.0441,-0.0441,0,0,0,0,0,0,0,0,0,0,0,0,0,-0.0255,-0.0255,-0.0293,-0.0293,-0.0294,-0.0368,-0.037,-0.0371,-0.0426,-0.0426,-0.0427,-0.0427,-0.0441,-0.0441,-0.0441,0,0,0,0,0,0,0,0,0,0,0,0,0,-0.0297,-0.0255,-0.0293,-0.0329,-0.0333,-0.0368,-0.037,-0.0371,-0.0426,-0.0426,-0.0427,-0.0427,-0.044,-0.0441,-0.0441,-0.0434,0,0,-0.0441,-0.0441,0,0,0,0,0,0,0,0,-0.0295,-0.0299,-0.0323,-0.0327,-0.0331,-0.0386,-0.0362,-0.0388,-0.0426,-0.0393,-0.0427,-0.0427,-0.0415,-0.0417,-0.0435,-0.0434,-0.0435,-0.0441,-0.0441,-0.0442,-0.0442,0,0,0,0,0,0,0,-0.0291,-0.0296,-0.0325,-0.0324,-0.0329,-0.0362,-0.0368,-0.0368,-0.0401,-0.0396,-0.0399,-0.0404,-0.0417,-0.0434,-0.0435,-0.0435,-0.0441,-0.0441,-0.0442,-0.0442,-0.0549,-0.0552,0,0,0,0,0,0,-0.0274,-0.0293,-0.0322,-0.0327,-0.0311,-0.0362,-0.0369,-0.037,-0.0403,-0.0408,-0.0404,-0.0407,-0.0434,-0.0435,-0.0436,-0.0481,-0.0442,-0.0442,-0.0442,-0.0546,-0.055,-0.0552,0,0,0,0,0,0,-0.0273,-0.0276,-0.0319,-0.031,-0.0318,-0.0361,-0.0363,-0.0371,-0.0409,-0.0409,-0.0414,-0.0435,-0.0434,-0.0435,-0.0462,-0.048,-0.0442,-0.0442,-0.0543,-0.0547,-0.0551,-0.0537,0,0,0,0,0,0,-0.0272,-0.0275,-0.0283,-0.0309,-0.0318,-0.0335,-0.0362,-0.0372,-0.0409,-0.0414,-0.0436,-0.0437,-0.0435,-0.0462,-0.0462,-0.0479,-0.0442,-0.0539,-0.0545,-0.055,-0.0534,-0.0541,-0.0546,0,0,0,0,0,-0.027,-0.0271,-0.0282,-0.0287,-0.0322,-0.0335,-0.0343,-0.0377,-0.041,-0.0416,-0.0452,-0.0438,-0.0496,-0.0463,-0.0463,-0.0481,-0.0537,-0.0543,-0.0549,-0.0532,-0.0539,-0.0546,0,0,0,0,0,0,-0.0259,-0.0278,-0.029,-0.0298,-0.0313,-0.0343,-0.0356,-0.0389,-0.0426,-0.0439,-0.0453,-0.0456,-0.0493,-0.05,-0.0464,-0.0537,-0.0522,-0.0528,-0.0509,-0.0516,-0.0521,-0.0481,-0.0442,0,0,0,0,0,-0.0258,-0.0265,-0.0283,-0.029,-0.0295,-0.0333,-0.0351,-0.0374,-0.0404,-0.0424,-0.0448,-0.0486,-0.0517,-0.0525,-0.055,-0.057,-0.0557,-0.0595,-0.06,-0.0604,-0.0579,-0.0606,-0.0609,-0.0573,-0.0573,-0.0573,0,0,-0.0257,-0.0268,-0.0274,-0.0289,-0.0306,-0.0325,-0.0345,-0.0368,-0.0388,-0.0415,-0.046,-0.05,-0.0532,-0.0566,-0.0584,-0.057,-0.0609,-0.0612,-0.0615,-0.0586,-0.0612,-0.0615,-0.0617,-0.0577,-0.0576,-0.0576,0,0,-0.0254,-0.0263,-0.027,-0.0286,-0.0309,-0.0327,-0.0337,-0.0378,-0.0393,-0.0431,-0.0477,-0.0523,-0.0565,-0.0592,-0.061,-0.0663,-0.0643,-0.0697,-0.0676,-0.0704,-0.0705,-0.0706,-0.0676,-0.0675,-0.0693,-0.0693,-0.0693,0,-0.0265,-0.027,-0.0273,-0.0289,-0.031,-0.0331,-0.0353,-0.0364,-0.0416,-0.0426,-0.0441,-0.0543,-0.0569,-0.0613,-0.0642,-0.0667,-0.0668,-0.0636,-0.0704,-0.0705,-0.0706,-0.0676,-0.0674,-0.0693,-0.0693,-0.0693,-0.0693,0,-0.0261,-0.0284,-0.0286,-0.0315,-0.033,-0.0349,-0.0362,-0.0382,-0.0412,-0.0432,-0.0478,-0.0524,-0.0584,-0.0616,-0.0637,-0.0682,-0.0672,-0.0707,-0.0668,-0.0708,-0.0675,-0.0673,-0.0693,-0.0693,-0.0693,-0.0693,0,0,-0.0254,-0.0284,-0.0286,-0.0316,-0.0352,-0.0364,-0.0377,-0.0391,-0.0416,-0.0441,-0.0469,-0.0531,-0.0564,-0.059,-0.064,-0.0656,-0.0668,-0.0684,-0.0686,-0.0619,-0.0691,-0.0677,-0.0673,-0.0721,-0.0722,-0.0722,-0.0655,0,-0.0262,-0.0291,-0.0303,-0.035,-0.0375,-0.0396,-0.0418,-0.0433,-0.0442,-0.0468,-0.0479,-0.0537,-0.055,-0.0606,-0.0616,-0.0678,-0.0667,-0.0679,-0.0692,-0.069,-0.0645,-0.0673,-0.0723,-0.0654,-0.0654,-0.0653,-0.0653,0,-0.026,-0.0284,-0.0319,-0.0387,-0.0399,-0.0431,-0.0466,-0.0486,-0.0495,-0.0508,-0.0524,-0.0549,-0.0578,-0.0598,-0.0629,-0.0643,-0.0653,-0.067,-0.0669,-0.0653,-0.0675,-0.0617,-0.065,-0.065,-0.065,-0.0651,-0.0651,0,-0.0252,-0.0303,-0.033,-0.0353,-0.042,-0.0441,-0.0477,-0.0501,-0.0499,-0.0537,-0.0552,-0.0576,-0.0616,-0.0621,-0.0641,-0.0654,-0.0653,-0.0683,-0.0651,-0.0648,-0.0679,-0.0679,-0.0677,-0.0677,-0.0677,-0.0677,-0.0677,0,-0.0264,-0.0302,-0.0332,-0.036,-0.0408,-0.0455,-0.0491,-0.0529,-0.0542,-0.055,-0.0583,-0.0587,-0.0634,-0.0631,-0.0629,-0.0622,-0.0642,-0.0627,-0.0638,-0.0677,-0.0677,-0.0676,-0.0677,-0.0674,-0.0675,-0.0676,-0.0676,0,-0.0277,-0.0291,-0.0338,-0.0393,-0.0411,-0.0447,-0.0486,-0.0514,-0.0544,-0.055,-0.0565,-0.0595,-0.0618,-0.0615,-0.064,-0.0627,-0.0618,-0.0604,-0.0597,-0.0612,-0.0583,-0.0584,-0.0556,-0.0555,-0.0554,-0.0554,-0.0553,0,-0.0299,-0.0318,-0.0348,-0.0368,-0.0401,-0.0441,-0.0481,-0.0511,-0.052,-0.054,-0.0545,-0.0569,-0.0587,-0.0574,-0.0593,-0.0565,-0.0572,-0.0557,-0.0599,-0.0561,-0.0574,-0.0577,-0.0579,-0.0552,-0.0552,-0.0551,-0.0551,0,-0.0354,-0.0346,-0.0365,-0.0383,-0.0418,-0.0452,-0.0496,-0.0482,-0.0517,-0.0524,-0.0525,-0.0528,-0.0545,-0.0554,-0.0549,-0.0527,-0.0571,-0.0549,-0.0551,-0.059,-0.0556,-0.057,-0.0574,-0.0549,-0.0549,-0.0549,-0.0549,0,-0.0384,-0.039,-0.0385,-0.0402,-0.0439,-0.0473,-0.0487,-0.0504,-0.05,-0.0509,-0.0495,-0.0519,-0.0532,-0.053,-0.0506,-0.0508,-0.0511,-0.052,-0.0524,-0.0527,-0.0555,-0.0509,-0.0482,0,0,0,0,0,-0.0416,-0.0405,-0.0419,-0.0424,-0.0457,-0.0477,-0.0509,-0.0514,-0.0508,-0.051,-0.0494,-0.0499,-0.0497,-0.0494,-0.0491,-0.0498,-0.0517,-0.0495,-0.0531,-0.0535,-0.0538,-0.0577,0,0,0,0,0,0,-0.0426,-0.043,-0.041,-0.0436,-0.045,-0.049,-0.0514,-0.0519,-0.0504,-0.0497,-0.0492,-0.0487,-0.0483,-0.049,-0.0484,-0.0484,-0.0506,-0.0491,-0.0491,-0.0533,-0.0536,-0.0538,-0.0579,0,0,0,0,0]}]]